#timestamp,LO_Frequency,Hit,StdDev 
1596265215.0,286046996.9,N
1596265215.9,286046996.9,N
1596265235.7,286046997.2,N
1596265255.6,286046997.8,N
1596265275.4,286046999.6,N
1596265295.3,286046999.4,N
1596265315.1,286046999.0,N
1596265335.8,286047001.1,N
1596265355.7,286047000.7,N
1596265375.5,286047000.6,N
1596265395.4,286046999.9,N
1596265415.2,286047002.8,N
1596265435.0,286046999.9,N
1596265435.9,286046999.9,N
1596265455.8,286047001.0,N
1596265475.6,286046999.9,N
1596265495.4,286047000.4,N
1596265515.3,286047001.1,N
1596265535.1,286047000.5,N
1596265555.9,286047000.2,N
1596265575.7,286047000.6,N
1596265595.5,286047000.5,N
1596265615.4,286047001.0,N
1596265635.2,286047001.0,N
1596265655.0,286047000.6,N
1596265655.9,286047000.6,N
1596265675.8,286047000.9,N
1596265695.6,286047000.6,N
1596265715.5,286047000.5,N
1596265735.3,286047000.5,N
1596265755.1,286047000.5,N
1596265775.9,286047001.2,N
1596265795.7,286047000.8,N
1596265815.6,286047000.8,N
1596265835.4,286047000.8,N
1596265855.2,286047002.3,Y
1596265875.1,286047000.8,P
1596265876.0,286047000.8,P
1596265895.8,286047000.8,P
1596265915.7,286047000.6,Y
1596265935.5,286046998.3,P
1596265955.3,286047000.9,N
1596265975.2,286047000.6,N
1596265995.0,286046998.7,N
1596265995.9,286046998.7,N
1596266015.8,286046999.4,N
1596266035.6,286046999.5,N
1596266055.4,286046999.0,N
1596266075.3,286046998.8,N
1596266095.1,286046998.4,N
1596266115.9,286046998.1,N
1596266135.7,286046998.3,N
1596266155.5,286046998.4,N
1596266175.4,286047000.8,N
1596266195.2,286046998.8,N
1596266215.0,286046998.7,N
1596266216.0,286046998.7,N
1596266235.8,286046998.7,N
1596266255.6,286046998.1,N
1596266275.5,286046998.8,N
1596266295.3,286046999.3,N
1596266315.1,286046998.8,N
1596266335.9,286046998.5,N
1596266355.7,286046998.3,N
1596266375.6,286046999.3,N
1596266395.4,286046999.4,N
1596266415.3,286047001.1,N
1596266435.1,286046998.5,N
1596266436.0,286046998.5,N
1596266455.8,286046998.6,N
1596266475.7,286046998.6,N
1596266495.5,286046998.2,N
1596266515.3,286046998.3,N
1596266535.2,286046998.1,N
1596266555.0,286046999.0,N
1596266555.9,286046999.0,N
1596266575.8,286046998.6,N
1596266595.6,286046998.9,N
1596266615.5,286047001.1,N
1596266635.3,286047000.5,N
1596266655.1,286047000.7,N
1596266675.9,286047001.1,N
1596266695.7,286047000.9,N
1596266715.5,286047001.0,N
1596266735.4,286047000.5,N
1596266755.2,286047002.8,N
1596266775.1,286047002.7,N
1596266776.0,286047002.7,N
1596266795.8,286047001.8,N
1596266815.6,286047001.4,N
1596266835.5,286047002.5,N
1596266855.3,286047002.7,N
1596266875.2,286046999.7,N
1596266895.9,286047000.2,N
1596266915.7,286047000.4,N
1596266935.6,286047002.4,N
1596266955.4,286047002.3,N
1596266975.2,286047000.1,N
1596266995.1,286047000.5,N
1596266996.0,286047000.5,N
1596267015.8,286047000.0,N
1596267035.7,286047000.2,N
1596267055.5,286046999.9,N
1596267075.3,286046999.9,N
1596267095.2,286047000.7,N
1596267115.0,286047000.9,N
1596267115.9,286047000.9,N
1596267135.8,286047001.0,N
1596267155.6,286047001.6,N
1596267175.4,286046998.8,N
1596267195.3,286046998.7,N
1596267215.1,286047000.5,N
1596267235.9,286046998.6,N
1596267255.7,286047000.6,N
1596267275.5,286046999.9,N
1596267295.4,286047002.4,N
1596267315.2,286047002.1,N
1596267335.1,286047002.3,N
1596267336.0,286047002.3,N
1596267355.8,286047002.2,N
1596267375.6,286047002.3,N
1596267395.5,286047002.0,N
1596267415.3,286047001.7,N
1596267435.2,286047003.9,Y
1596267455.9,286047001.6,P
1596267475.7,286047002.0,P
1596267495.6,286047002.7,P
1596267515.4,286047002.7,Y
1596267535.2,286047001.2,P
1596267555.1,286047001.0,P
1596267556.0,286047001.0,N
1596267575.8,286047000.5,N
1596267595.7,286046998.6,Y
1596267615.5,286046999.5,P
1596267635.3,286046999.2,N
1596267655.2,286046996.9,P
1596267675.0,286046997.4,N
1596267675.9,286046997.4,N
1596267695.8,286046996.7,N
1596267715.6,286046996.6,N
1596267735.4,286046999.4,N
1596267755.3,286046999.2,N
1596267775.1,286046996.5,N
1596267795.9,286046999.2,N
1596267815.7,286046999.6,N
1596267835.5,286046996.5,N
1596267855.4,286046999.6,N
1596267875.2,286046997.1,N
1596267895.0,286046997.7,N
1596267895.9,286046997.7,N
1596267915.8,286046997.6,N
1596267935.6,286046997.8,N
1596267955.5,286046995.4,Y
1596267975.3,286046996.6,P
1596267995.1,286046999.1,N
1596268015.9,286046999.4,N
1596268035.7,286046997.6,N
1596268055.6,286046997.4,N
1596268075.4,286046996.7,Y
1596268095.3,286046998.5,P
1596268115.1,286046999.1,P
1596268116.0,286046999.1,N
1596268135.8,286046998.9,N
1596268155.7,286046998.5,Y
1596268175.5,286047002.8,P
1596268195.4,286047000.3,N
1596268215.2,286046998.5,N
1596268235.0,286046999.4,N
1596268235.9,286046999.4,N
1596268255.8,286047002.2,N
1596268275.6,286047001.3,N
1596268295.4,286047004.4,N
1596268315.3,286047004.4,N
1596268335.1,286047004.3,N
1596268355.9,286047002.1,N
1596268375.2,286047000.4,N
1596268395.1,286047000.4,N
1596268396.0,286047000.4,N
1596268415.8,286047000.5,N
1596268435.7,286047000.0,N
1596268455.5,286046999.7,N
1596268475.3,286047001.0,N
1596268495.2,286047001.2,N
1596268515.0,286046998.1,N
1596268515.9,286046998.1,N
1596268535.8,286046997.2,N
1596268555.6,286046996.5,N
1596268575.4,286046997.6,N
1596268595.3,286046995.4,N
1596268615.1,286046998.9,N
1596268635.8,286046996.8,N
1596268655.7,286046999.1,N
1596268675.5,286046997.3,N
1596268695.4,286046997.8,N
1596268715.2,286046996.6,N
1596268735.0,286046997.1,N
1596268735.9,286046997.1,N
1596268755.8,286046996.6,N
1596268775.6,286046996.7,N
1596268795.5,286046999.2,N
